Regional Weather Roundup
Issued by NWS New Orleans/Baton Rouge, LA

Home | Current Version | Previous Version | Graphics & Text | Print | Product List | Glossary On
Versions: 1 2 3 4 5 6 7 8 9 10 11 12 13 14 15 16 17 18 19 20 21 22 23 24 25 26 27 28 29 30 31 32 33 34 35 36 37 38 39 40 41 42 43 44 45 46 47 48 49 50
785
ASUS44 KLIX 311807
RWRLIX
NEW ORLEANS REGIONAL WEATHER ROUNDUP
NATIONAL WEATHER SERVICE NEW ORLEANS LA
100 PM CDT TUE MAR 31 2015

NOTE: "FAIR" INDICATES FEW OR NO CLOUDS BELOW 12,000 FEET WITH NO
      SIGNIFICANT WEATHER AND/OR OBSTRUCTIONS TO VISIBILITY.
      SKY/WX - SKY CONDITION AND SIGNIFICANT WEATHER.
      TMP - AIR TEMPERATURE.     DP    - DEWPOINT TEMPERATURE.
      RH  - RELATIVE HUMIDITY.   PRES  - PRESSURE.
      HI  - HEAT INDEX.          WCI   - WIND CHILL INDEX.

*  THESE STATIONS ARE NOT NWS OR FAA STATIONS AND ARE NOT UNDER
   NWS QUALITY CONTROL.

LAZ038-040-048-061>063-065>067-069-311900-
SOUTHEAST LOUISIANA

CITY           SKY/WX    TMP DP  RH WIND       PRES   REMARKS
N.O. AUDUBON   NOT AVBL
N.O. INTL ARPT PTSUNNY   79  61  53 SW15      30.11F
6HR MIN TEMP:  61; 6HR MAX TEMP:  80;

N.O. LAKEFRONT CLOUDY    78  64  61 SW5       30.12F
6HR MIN TEMP:  65; 6HR MAX TEMP:  79;

SLIDELL        PTSUNNY   78  64  61 W10G20    30.11F
6HR MIN TEMP:  56; 6HR MAX TEMP:  79;

BATON ROUGE    PTSUNNY   79  60  52 SW12      30.10F
6HR MIN TEMP:  59; 6HR MAX TEMP:  80;

BOOTHVILLE     MOSUNNY   76  66  71 SW10      30.14F
6HR MIN TEMP:  69; 6HR MAX TEMP:  77;

BELLE CHASSE   PTSUNNY   78  63  59 SW13      30.11F
6HR MIN TEMP:  59; 6HR MAX TEMP:  78;

BOGALUSA*        N/A     81  59  47 SW13G18   30.11F
6HR MIN TEMP:  56; 6HR MAX TEMP:  82;

GALLIANO*      PTCLDY    81  64  55 MISG      30.14F
6HR MIN TEMP:  53; 6HR MAX TEMP:  81;

NEW ROADS*     MOCLDY    77  60  56 SW13      30.10F
6HR MIN TEMP:  61; 6HR MAX TEMP:  79;

GONZALES*        N/A     80  61  51 SW13G22   30.11F
6HR MIN TEMP:  58; 6HR MAX TEMP:  80;

HAMMOND*       MOSUNNY   81  57  44 SW10G17   30.12F
HOUMA*         MOSUNNY   81  64  57 SW10      30.12F
PORT FOURCHON*   N/A     77  64  65 SW10G16   30.17F

$$

MSZ070-080>082-311900-
SOUTHERN MISSISSIPPI

CITY           SKY/WX    TMP DP  RH WIND       PRES   REMARKS
MCCOMB         PTSUNNY   76  59  55 W7G21     30.09F
6HR MIN TEMP:  61; 6HR MAX TEMP:  78;

GULFPORT       MOSUNNY   78  63  59 SW10G20   30.10F
6HR MIN TEMP:  60; 6HR MAX TEMP:  78;

BILOXI         SUNNY     77  66  68 SW16      30.10F
6HR MIN TEMP:  64; 6HR MAX TEMP:  77;

PASCAGOULA     PTSUNNY   79  62  56 SW12G22   30.11F
6HR MIN TEMP:  57; 6HR MAX TEMP:  80;


$$

COASTAL OBSERVATIONS
LAKE AND NEARSHORE STATIONS

STATION/POSITION TIME  TEMP    WIND        PRES    WAVE
                       AIR SEA DIR/SP/G            HT/PER
                 (UTC) (F)     (DEG/KT/KT) (MB)    (FT/S)
PASCAGOULA       1700   73     220/  7/ 11 1020.5
WAVELAND YACHT   1700   75 69  240/  4/  9 1020.5
GRAND ISLE       1700   76 70  200/  4/  8 1020.9
SOUTHWEST PASS   1700   80 55  180/  3/  3 1021.6
NEW CANAL        1700   77     240/  9/ 12 1020.7
SHELL BEACH      1700   75 70  230/ 17/ 19 1020.5

OFFSHORE STATIONS

STATION/POSITION TIME  TEMP    WIND        PRES    WAVE
                       AIR SEA DIR/SP/G            HT/PER
                 (UTC) (F)     (DEG/KT/KT) (MB)    (FT/S)
64 S DAUPHIN ISL 1750   73 73  230/  4/  6 1021.1    2/ 8

$$




USA.gov is the U.S. government's official web portal to all federal, state and local government web resources and services.